EST,Max TemperatureF,Mean TemperatureF,Min TemperatureF,Max Dew PointF,MeanDew PointF,Min DewpointF,Max Humidity, Mean Humidity, Min Humidity, Max Sea Level PressureIn, Mean Sea Level PressureIn, Min Sea Level PressureIn, Max VisibilityMiles, Mean VisibilityMiles, Min VisibilityMiles, Max Wind SpeedMPH, Mean Wind SpeedMPH, Max Gust SpeedMPH,PrecipitationIn, CloudCover, Events, WindDirDegrees
2013-1-1,25,21,18,14,11,9,74,65,51,30.12,30.05,30.01,10,10,2,13,6,20,0.00,8,Snow,296
2013-1-2,26,22,18,21,16,10,82,75,68,30.11,30.06,30.00,10,8,2,16,8,21,0.00,8,Snow,260
2013-1-3,28,24,21,22,19,14,82,76,66,30.09,30.03,29.96,10,8,4,17,7,22,0.00,8,Snow,241
2013-1-4,30,28,25,23,20,17,80,73,63,30.10,30.00,29.94,10,10,10,17,11,25,0.00,4,,254
2013-1-5,35,23,11,33,23,9,96,88,69,30.17,30.05,29.88,10,5,0,10,4,18,0.00,5,Fog-Snow,203
2013-1-6,35,30,26,33,28,22,95,83,71,30.23,29.95,29.78,10,8,1,14,8,22,0.00,8,Snow,291
2013-1-7,36,28,21,26,23,19,89,72,58,30.24,30.13,30.01,10,10,10,18,6,26,0.00,4,,205
2013-1-8,39,28,17,33,25,15,99,83,64,30.14,30.08,30.01,10,6,0,10,4,,0.00,3,Fog,173
2013-1-9,43,36,30,32,26,22,83,64,46,30.38,30.08,29.88,10,10,7,24,12,34,0.00,2,Snow,258
2013-1-10,42,30,18,32,23,16,96,74,45,30.50,30.37,30.06,10,10,4,12,3,20,0.00,1,Rain-Snow,133
2013-1-11,47,40,34,46,40,33,99,97,91,30.05,29.78,29.66,10,3,0,15,7,21,0.00,8,Fog-Rain-Snow,165
2013-1-12,54,44,35,47,38,22,97,74,37,29.91,29.80,29.69,10,9,2,22,8,32,0.00,2,Rain-Snow,223
2013-1-13,34,28,23,33,28,17,98,90,76,30.03,29.89,29.79,10,7,2,14,5,22,0.00,8,Snow,299
2013-1-14,23,18,12,16,13,8,86,76,67,30.37,30.28,30.04,10,7,1,18,9,26,0.00,6,Snow,274
2013-1-15,30,22,15,16,15,10,85,72,54,30.36,30.27,30.08,10,10,4,10,3,16,0.00,4,Snow,240
2013-1-16,33,24,15,29,20,13,89,78,53,30.07,29.84,29.68,10,8,1,20,6,29,0.00,5,Snow,228
2013-1-17,31,24,16,27,15,6,82,72,60,30.28,30.15,29.93,10,7,1,20,7,30,0.00,8,Snow,329
2013-1-18,40,20,2,29,14,-3,84,72,59,30.34,30.11,29.77,10,9,2,20,6,30,0.00,5,Snow,212
2013-1-19,41,38,34,34,31,26,89,73,64,29.80,29.68,29.48,10,9,0,31,11,44,0.00,6,Rain-Snow,231
2013-1-20,31,21,11,23,8,2,84,71,55,30.14,30.00,29.54,10,6,0,36,19,45,0.00,8,Snow,287
2013-1-21,13,6,0,8,-1,-9,78,67,53,30.07,29.99,29.94,10,6,1,21,10,29,0.00,6,Snow,292
2013-1-22,7,2,-4,-4,-7,-10,78,69,53,30.21,30.16,30.07,10,8,2,14,6,20,0.00,5,Snow,289
2013-1-23,17,6,-4,10,2,-10,80,74,61,30.20,30.10,29.99,10,5,0,14,4,21,0.00,7,Snow,268
2013-1-24,15,5,-5,3,-4,-12,82,65,36,30.56,30.43,30.13,10,10,2,7,1,,0.00,1,Snow,335
2013-1-25,20,16,12,16,10,-2,91,76,52,30.40,30.08,29.91,10,4,0,13,6,17,0.00,8,Snow,165
2013-1-26,28,19,10,18,15,6,93,76,56,30.37,30.22,30.00,10,9,2,10,6,,0.00,7,Snow,303
2013-1-27,30,20,9,28,18,6,93,79,57,30.37,30.26,30.01,10,8,0,12,4,18,0.00,7,Snow,152
2013-1-28,38,34,29,38,33,28,99,93,84,29.99,29.87,29.77,10,6,1,12,6,,0.00,8,Snow,196
2013-1-29,51,42,34,51,39,32,99,96,89,29.93,29.64,29.37,10,2,0,9,5,,0.00,8,Fog-Rain-Snow,152
2013-1-30,45,34,24,44,34,21,99,96,86,29.37,29.23,29.07,10,4,0,23,6,30,0.00,8,Rain-Snow,336
2013-1-31,23,19,14,21,13,8,87,76,59,29.85,29.59,29.29,10,5,0,24,16,31,0.00,8,Snow,294